Time,TemperatureF,DewpointF,PressureIn,WindDirection,WindDirectionDegrees,WindSpeedMPH,WindSpeedGustMPH,Humidity,HourlyPrecipIn,Conditions,Clouds,dailyrainin,SoftwareType,DateUTC
2013-12-26 00:06:00,70.1,66.0,29.94,SSW,201,1.0,1.0,87,0.00,,,0.02,weatherlink.com 1.10,2013-12-26 04:06:00,
2013-12-26 00:22:00,69.8,66.0,29.94,WSW,250,0.0,1.0,88,0.00,,,0.02,weatherlink.com 1.10,2013-12-26 04:22:00,
2013-12-26 00:36:00,69.9,67.0,29.93,WSW,252,0.0,0.0,89,0.00,,,0.00,weatherlink.com 1.10,2013-12-26 04:36:00,
2013-12-26 00:52:00,69.6,66.0,29.93,WSW,250,0.0,1.0,89,0.00,,,0.00,weatherlink.com 1.10,2013-12-26 04:52:00,
2013-12-26 01:06:00,69.5,66.0,29.93,SE,139,0.0,2.0,89,0.00,,,0.00,weatherlink.com 1.10,2013-12-26 05:06:00,
2013-12-26 01:22:00,69.3,66.0,29.93,SE,139,0.0,1.0,89,0.00,,,0.00,weatherlink.com 1.10,2013-12-26 05:22:00,
2013-12-26 01:36:00,69.3,66.0,29.93,SE,140,0.0,0.0,90,0.00,,,0.00,weatherlink.com 1.10,2013-12-26 05:36:00,
2013-12-26 01:52:00,69.4,66.0,29.93,SE,139,0.0,1.0,89,0.00,,,0.00,weatherlink.com 1.10,2013-12-26 05:52:00,
2013-12-26 02:07:00,69.2,66.0,29.93,SE,139,1.0,1.0,90,0.00,,,0.00,weatherlink.com 1.10,2013-12-26 06:07:00,
2013-12-26 02:21:00,69.0,66.0,29.92,SE,140,0.0,1.0,90,0.00,,,0.00,weatherlink.com 1.10,2013-12-26 06:21:00,
2013-12-26 02:37:00,68.8,66.0,29.92,SSE,155,0.0,2.0,90,0.00,,,0.00,weatherlink.com 1.10,2013-12-26 06:37:00,
2013-12-26 02:52:00,68.7,66.0,29.92,SE,138,1.0,2.0,91,0.00,,,0.00,weatherlink.com 1.10,2013-12-26 06:52:00,
2013-12-26 03:07:00,68.9,66.0,29.92,SE,138,0.0,2.0,90,0.00,,,0.00,weatherlink.com 1.10,2013-12-26 07:07:00,
2013-12-26 03:23:00,68.7,66.0,29.91,South,183,0.0,1.0,90,0.00,,,0.00,weatherlink.com 1.10,2013-12-26 07:23:00,
2013-12-26 03:37:00,68.4,66.0,29.91,SSW,197,0.0,1.0,92,0.00,,,0.00,weatherlink.com 1.10,2013-12-26 07:37:00,
2013-12-26 03:52:00,68.2,66.0,29.91,SSW,197,0.0,1.0,92,0.00,,,0.00,weatherlink.com 1.10,2013-12-26 07:52:00,
2013-12-26 04:07:00,68.1,66.0,29.91,South,172,0.0,1.0,92,0.00,,,0.00,weatherlink.com 1.10,2013-12-26 08:07:00,
2013-12-26 04:23:00,68.2,66.0,29.92,SSE,150,0.0,1.0,92,0.00,,,0.00,weatherlink.com 1.10,2013-12-26 08:23:00,
2013-12-26 04:39:00,68.0,66.0,29.92,SSE,148,0.0,2.0,92,0.00,,,0.00,weatherlink.com 1.10,2013-12-26 08:39:00,
2013-12-26 04:53:00,67.9,66.0,29.92,SSE,148,0.0,1.0,92,0.00,,,0.00,weatherlink.com 1.10,2013-12-26 08:53:00,
2013-12-26 05:07:00,67.7,66.0,29.93,SSE,148,0.0,0.0,93,0.00,,,0.00,weatherlink.com 1.10,2013-12-26 09:07:00,
2013-12-26 05:22:00,67.5,66.0,29.93,SSE,148,0.0,0.0,93,0.00,,,0.00,weatherlink.com 1.10,2013-12-26 09:22:00,
2013-12-26 05:38:00,67.7,66.0,29.93,SSE,148,0.0,0.0,94,0.00,,,0.00,weatherlink.com 1.10,2013-12-26 09:38:00,
2013-12-26 06:08:00,67.5,66.0,29.94,SSE,148,0.0,0.0,93,0.00,,,0.00,weatherlink.com 1.10,2013-12-26 10:08:00,
2013-12-26 06:23:00,67.6,66.0,29.94,ESE,120,0.0,0.0,94,0.00,,,0.00,weatherlink.com 1.10,2013-12-26 10:23:00,
2013-12-26 06:38:00,67.5,66.0,29.95,ESE,120,0.0,1.0,94,0.00,,,0.00,weatherlink.com 1.10,2013-12-26 10:38:00,
2013-12-26 06:53:00,67.1,65.0,29.95,ESE,120,0.0,0.0,94,0.00,,,0.00,weatherlink.com 1.10,2013-12-26 10:53:00,
2013-12-26 07:08:00,67.1,65.0,29.96,ESE,120,0.0,0.0,94,0.00,,,0.00,weatherlink.com 1.10,2013-12-26 11:08:00,
2013-12-26 07:23:00,67.3,66.0,29.96,ESE,120,0.0,0.0,95,0.00,,,0.00,weatherlink.com 1.10,2013-12-26 11:23:00,
2013-12-26 07:38:00,69.1,67.0,29.97,ESE,120,0.0,1.0,93,0.00,,,0.00,weatherlink.com 1.10,2013-12-26 11:38:00,
2013-12-26 07:53:00,71.1,68.0,29.98,SSE,148,0.0,1.0,90,0.00,,,0.00,weatherlink.com 1.10,2013-12-26 11:53:00,
2013-12-26 08:08:00,74.2,70.0,29.98,SSE,148,0.0,1.0,86,0.00,,,0.00,weatherlink.com 1.10,2013-12-26 12:08:00,
2013-12-26 08:23:00,76.7,70.0,29.99,SSE,148,0.0,1.0,80,0.00,,,0.00,weatherlink.com 1.10,2013-12-26 12:23:00,
2013-12-26 08:38:00,76.6,70.0,30.00,ESE,115,0.0,2.0,79,0.00,,,0.00,weatherlink.com 1.10,2013-12-26 12:38:00,
2013-12-26 08:54:00,79.1,71.0,30.00,ESE,117,0.0,1.0,75,0.00,,,0.00,weatherlink.com 1.10,2013-12-26 12:54:00,
2013-12-26 09:09:00,80.7,71.0,30.00,ESE,117,0.0,0.0,72,0.00,,,0.00,weatherlink.com 1.10,2013-12-26 13:09:00,
2013-12-26 09:24:00,81.8,71.0,30.01,ESE,117,0.0,1.0,69,0.00,,,0.00,weatherlink.com 1.10,2013-12-26 13:24:00,
2013-12-26 09:39:00,82.1,72.0,30.01,East,95,0.0,2.0,72,0.00,,,0.00,weatherlink.com 1.10,2013-12-26 13:39:00,
2013-12-26 09:54:00,81.6,73.0,30.01,East,96,2.0,5.0,76,0.00,,,0.00,weatherlink.com 1.10,2013-12-26 13:54:00,
2013-12-26 10:09:00,81.7,75.0,30.01,ENE,77,0.0,4.0,79,0.00,,,0.00,weatherlink.com 1.10,2013-12-26 14:09:00,
2013-12-26 10:24:00,81.9,74.0,30.01,East,91,6.0,8.0,78,0.00,,,0.00,weatherlink.com 1.10,2013-12-26 14:24:00,
2013-12-26 10:39:00,82.4,75.0,30.02,East,101,2.0,7.0,78,0.00,,,0.00,weatherlink.com 1.10,2013-12-26 14:39:00,
2013-12-26 10:54:00,82.7,75.0,30.01,NE,45,3.0,10.0,77,0.00,,,0.00,weatherlink.com 1.10,2013-12-26 14:54:00,
2013-12-26 11:08:00,82.7,75.0,30.01,NE,51,1.0,9.0,77,0.00,,,0.00,weatherlink.com 1.10,2013-12-26 15:08:00,
2013-12-26 11:24:00,83.8,74.0,30.01,ENE,76,4.0,8.0,72,0.00,,,0.00,weatherlink.com 1.10,2013-12-26 15:24:00,
2013-12-26 11:38:00,83.8,76.0,30.01,ENE,58,4.0,11.0,77,0.00,,,0.00,weatherlink.com 1.10,2013-12-26 15:38:00,
2013-12-26 11:54:00,84.1,75.0,30.00,NE,53,5.0,10.0,74,0.00,,,0.00,weatherlink.com 1.10,2013-12-26 15:54:00,
2013-12-26 12:09:00,84.2,74.0,30.00,ENE,77,5.0,8.0,72,0.00,,,0.00,weatherlink.com 1.10,2013-12-26 16:09:00,
2013-12-26 12:24:00,84.2,75.0,30.00,ENE,70,5.0,10.0,74,0.00,,,0.00,weatherlink.com 1.10,2013-12-26 16:24:00,
2013-12-26 12:39:00,83.8,75.0,29.99,East,93,5.0,11.0,74,0.00,,,0.00,weatherlink.com 1.10,2013-12-26 16:39:00,
2013-12-26 12:54:00,84.3,75.0,29.98,East,96,3.0,10.0,73,0.00,,,0.00,weatherlink.com 1.10,2013-12-26 16:54:00,
2013-12-26 13:09:00,84.7,74.0,29.97,ENE,70,6.0,11.0,70,0.00,,,0.00,weatherlink.com 1.10,2013-12-26 17:09:00,
2013-12-26 13:24:00,84.7,73.0,29.97,East,83,4.0,11.0,69,0.00,,,0.00,weatherlink.com 1.10,2013-12-26 17:24:00,
2013-12-26 13:39:00,84.1,73.0,29.96,ESE,110,3.0,10.0,70,0.00,,,0.00,weatherlink.com 1.10,2013-12-26 17:39:00,
2013-12-26 13:54:00,83.2,72.0,29.96,East,95,8.0,12.0,68,0.00,,,0.00,weatherlink.com 1.10,2013-12-26 17:54:00,
2013-12-26 14:09:00,83.0,72.0,29.96,ESE,107,8.0,10.0,69,0.00,,,0.00,weatherlink.com 1.10,2013-12-26 18:09:00,
2013-12-26 14:24:00,83.5,70.0,29.95,East,82,12.0,15.0,63,0.00,,,0.00,weatherlink.com 1.10,2013-12-26 18:24:00,
2013-12-26 14:39:00,83.8,71.0,29.95,East,87,5.0,11.0,65,0.00,,,0.00,weatherlink.com 1.10,2013-12-26 18:39:00,
2013-12-26 14:54:00,84.7,70.0,29.95,East,94,5.0,12.0,61,0.00,,,0.00,weatherlink.com 1.10,2013-12-26 18:54:00,
2013-12-26 15:09:00,84.6,71.0,29.95,East,81,4.0,12.0,64,0.00,,,0.00,weatherlink.com 1.10,2013-12-26 19:09:00,
2013-12-26 15:24:00,84.5,72.0,29.95,East,84,8.0,10.0,66,0.00,,,0.00,weatherlink.com 1.10,2013-12-26 19:24:00,
2013-12-26 15:39:00,85.1,72.0,29.94,East,100,6.0,9.0,66,0.00,,,0.00,weatherlink.com 1.10,2013-12-26 19:39:00,
2013-12-26 15:54:00,84.2,73.0,29.94,ENE,75,8.0,10.0,68,0.00,,,0.00,weatherlink.com 1.10,2013-12-26 19:54:00,
2013-12-26 16:09:00,82.8,73.0,29.95,East,82,4.0,13.0,73,0.00,,,0.00,weatherlink.com 1.10,2013-12-26 20:09:00,
2013-12-26 16:24:00,83.1,73.0,29.95,ENE,69,9.0,9.0,72,0.00,,,0.00,weatherlink.com 1.10,2013-12-26 20:24:00,
2013-12-26 16:39:00,82.8,73.0,29.95,ESE,122,5.0,10.0,73,0.00,,,0.00,weatherlink.com 1.10,2013-12-26 20:39:00,
2013-12-26 16:54:00,82.2,74.0,29.95,East,93,4.0,9.0,75,0.00,,,0.00,weatherlink.com 1.10,2013-12-26 20:54:00,
2013-12-26 17:09:00,81.8,74.0,29.96,ESE,103,6.0,9.0,76,0.00,,,0.00,weatherlink.com 1.10,2013-12-26 21:09:00,
2013-12-26 17:24:00,81.2,74.0,29.96,ESE,108,2.0,9.0,79,0.00,,,0.00,weatherlink.com 1.10,2013-12-26 21:24:00,
2013-12-26 17:39:00,80.6,74.0,29.96,East,96,4.0,9.0,80,0.00,,,0.00,weatherlink.com 1.10,2013-12-26 21:39:00,
2013-12-26 17:54:00,80.0,74.0,29.96,East,100,5.0,10.0,81,0.00,,,0.00,weatherlink.com 1.10,2013-12-26 21:54:00,
2013-12-26 18:09:00,79.7,74.0,29.97,East,98,1.0,8.0,82,0.00,,,0.00,weatherlink.com 1.10,2013-12-26 22:09:00,
2013-12-26 18:24:00,79.3,74.0,29.98,SE,133,2.0,5.0,83,0.00,,,0.00,weatherlink.com 1.10,2013-12-26 22:24:00,
2013-12-26 18:39:00,79.1,74.0,29.98,East,94,3.0,8.0,83,0.00,,,0.00,weatherlink.com 1.10,2013-12-26 22:39:00,
2013-12-26 18:54:00,78.9,73.0,29.98,East,91,2.0,5.0,83,0.00,,,0.00,weatherlink.com 1.10,2013-12-26 22:54:00,
2013-12-26 19:09:00,78.8,73.0,29.99,East,83,1.0,5.0,83,0.00,,,0.00,weatherlink.com 1.10,2013-12-26 23:09:00,
2013-12-26 19:24:00,78.8,74.0,30.00,ENE,76,2.0,5.0,84,0.00,,,0.00,weatherlink.com 1.10,2013-12-26 23:24:00,
2013-12-26 19:39:00,78.7,74.0,30.00,East,86,4.0,4.0,85,0.00,,,0.00,weatherlink.com 1.10,2013-12-26 23:39:00,
2013-12-26 19:54:00,78.8,74.0,30.01,NE,51,1.0,2.0,85,0.00,,,0.00,weatherlink.com 1.10,2013-12-26 23:54:00,
2013-12-26 20:09:00,78.6,74.0,30.02,ESE,115,1.0,1.0,85,0.00,,,0.00,weatherlink.com 1.10,2013-12-27 00:09:00,
2013-12-26 20:25:00,78.3,74.0,30.02,ESE,113,0.0,1.0,85,0.00,,,0.00,weatherlink.com 1.10,2013-12-27 00:25:00,
2013-12-26 20:39:00,78.2,74.0,30.02,East,98,0.0,3.0,86,0.00,,,0.00,weatherlink.com 1.10,2013-12-27 00:39:00,
2013-12-26 20:55:00,77.8,73.0,30.03,East,94,0.0,1.0,85,0.00,,,0.00,weatherlink.com 1.10,2013-12-27 00:55:00,
2013-12-26 21:10:00,77.2,73.0,30.03,East,98,0.0,1.0,87,0.00,,,0.00,weatherlink.com 1.10,2013-12-27 01:10:00,
2013-12-26 21:25:00,77.0,73.0,30.03,East,84,0.0,3.0,88,0.00,,,0.00,weatherlink.com 1.10,2013-12-27 01:25:00,
2013-12-26 21:40:00,76.3,73.0,30.04,SSE,148,1.0,2.0,88,0.00,,,0.00,weatherlink.com 1.10,2013-12-27 01:40:00,
2013-12-26 21:55:00,75.7,72.0,30.04,SE,140,0.0,2.0,89,0.00,,,0.00,weatherlink.com 1.10,2013-12-27 01:55:00,
2013-12-26 22:10:00,75.4,72.0,30.04,SE,134,0.0,2.0,90,0.00,,,0.00,weatherlink.com 1.10,2013-12-27 02:10:00,
2013-12-26 22:25:00,75.6,73.0,30.04,ESE,113,0.0,2.0,90,0.00,,,0.00,weatherlink.com 1.10,2013-12-27 02:25:00,
2013-12-26 22:40:00,75.4,72.0,30.04,SE,132,0.0,1.0,90,0.00,,,0.00,weatherlink.com 1.10,2013-12-27 02:40:00,
2013-12-26 22:54:00,75.3,72.0,30.04,SSE,163,0.0,2.0,90,0.00,,,0.00,weatherlink.com 1.10,2013-12-27 02:54:00,
2013-12-26 23:10:00,75.1,72.0,30.03,SE,146,0.0,1.0,90,0.00,,,0.00,weatherlink.com 1.10,2013-12-27 03:10:00,
2013-12-26 23:24:00,74.7,72.0,30.03,ESE,121,0.0,2.0,90,0.00,,,0.00,weatherlink.com 1.10,2013-12-27 03:24:00,
2013-12-26 23:40:00,74.5,72.0,30.03,SSE,150,1.0,2.0,90,0.00,,,0.00,weatherlink.com 1.10,2013-12-27 03:40:00,
2013-12-26 23:55:00,74.0,71.0,30.03,SE,132,1.0,3.0,90,0.00,,,0.00,weatherlink.com 1.10,2013-12-27 03:55:00,